Regional Weather Roundup
Issued by NWS

Home | Current Version | Previous Version | Graphics & Text | Print | Product List | Glossary On
Versions: 1 2 3 4 5 6 7 8 9 10 11 12 13 14 15 16 17 18 19 20 21 22 23 24 25 26 27 28 29 30 31 32 33 34 35 36 37 38 39 40 41 42 43 44 45 46 47 48 49 50
304
ASUS43 KLMK 242010
RWRKY
KENTUCKY REGIONAL WEATHER ROUNDUP
NATIONAL WEATHER SERVICE LOUISVILLE KY
400 PM EDT SAT JUN 24 2017

NOTE "FAIR" INDICATES FEW OR NO CLOUDS BELOW 12,000 FEET
WITH NO SIGNIFICANT WEATHER AND/OR OBSTRUCTIONS TO VISIBILITY.

KYZ001>023-026-027-061>063-070>075-242100-
WESTERN AND SOUTH CENTRAL KENTUCKY

CITY           SKY/WX    TMP DP  RH WIND       PRES   REMARKS
PADUCAH        MOSUNNY   80  58  46 NW9       30.09S
HENDERSON      MOSUNNY   79  58  48 NW14G25   30.08S
OWENSBORO      PTSUNNY   79  58  48 NW14G23   30.07S
HOPKINSVILLE   MOSUNNY   79  58  49 NW7       30.08S
BOWLING GREEN  MOSUNNY   79  59  50 NW9       30.06F
GLASGOW        PTSUNNY   78  59  51 NW7       30.06F
$$

KYZ024-025-028>034-038-045-046-053-242100-
NORTH CENTRAL KENTUCKY

CITY           SKY/WX    TMP DP  RH WIND       PRES   REMARKS
LOUISVILLE/SDF PTSUNNY   81  56  42 NW15      30.03S
LOUISVILLE/LOU MOSUNNY   81  57  43 W14       30.03S
FORT KNOX      PTSUNNY   78  58  50 W13G18    30.04R
$$

KYZ035>037-039>044-047>052-055>060-089>105-242100-
NORTHEAST KENTUCKY

CITY           SKY/WX    TMP DP  RH WIND       PRES   REMARKS
LEXINGTON      CLOUDY    79  57  46 NW12G18   30.04R
COVINGTON      PTSUNNY   78  57  48 W17G23    30.02R
FRANKFORT      CLOUDY    79  55  43 W9        30.02S
$$

KYZ054-064>069-076>088-106>120-242100-
SOUTHEAST KENTUCKY

CITY           SKY/WX    TMP DP  RH WIND       PRES   REMARKS
JACKSON        MOSUNNY   80  62  54 VRB6      30.03F
LONDON         MOSUNNY   81  60  48 NW8       30.03F
SOMERSET       CLOUDY    79  57  47 W10       30.05S
MIDDLESBORO    SUNNY     83  62  49 W14       30.02F
MONTICELLO     MOCLDY    78  65  63 NW9       30.06S
$$





USA.gov is the U.S. government's official web portal to all federal, state and local government web resources and services.